Regional Weather Roundup
Issued by NWS Lake Charles, LA

Current Version | Previous Version | Text Only | Print | Product List | Glossary On
Versions: 1 2 3 4 5 6 7 8 9 10 11 12 13 14 15 16 17 18 19 20 21 22 23 24 25 26 27 28 29 30 31 32 33 34 35 36 37 38 39 40 41 42 43 44 45 46 47 48 49 50
000
ASUS44 KLCH 192010
RWRLCH
RWRLCH
REGIONAL WEATHER ROUNDUP
NATIONAL WEATHER SERVICE LAKE CHARLES LA
200 PM CST FRI DEC 19 2014

Note: "fair" indicates few or no clouds below 12,000 feet with no
significant weather and/or obstructions to visibility.


ACROSS SOUTHEAST TEXAS

CITY           SKY/WX    TMP DP  RH WIND       PRES   REMARKS
BEAUMONT       HVY RAIN  58  56  93 N17       29.99F FOG
BEAUMONT CITY  HVY RAIN  55  55  98 N13       30.01F
ORANGE         RAIN      57  56  97 N10G16    30.02F
JASPER         RAIN      49  47  95 NE8       30.09F
$$

ACROSS CENTRAL LOUISIANA

CITY           SKY/WX    TMP DP  RH WIND       PRES   REMARKS
LEESVILLE      LGT RAIN  51  49  96 N8        30.07S
FULLERTON      LGT RAIN  53  50  89 VRB5      30.06S
ALEXANDRIA INT LGT RAIN  51  49  92 N9        30.08F
ESLER FIELD    LGT RAIN  50  48  93 VRB7      30.09F
DERIDDER       LGT RAIN  53  52  95 N8        30.07F
OAKDALE        CLOUDY    55  53  94 N5        30.06S
OPELOUSAS      LGT RAIN  54  53  97 NE8       30.04S
$$

ACROSS SOUTHWEST AND SOUTH CENTRAL LOUISIANA

CITY           SKY/WX    TMP DP  RH WIND       PRES   REMARKS
SULPHUR        RAIN      59  58  97 N9        30.03F
LAKE CHARLES   LGT RAIN  57  55  93 NE16      30.02F
CHENNAULT INT  LGT RAIN  55  55 100 NE7       30.04F
CAMERON PHI    MOCLDY    57  57 100 NE12G18   30.03F
DEQUINCY       LGT RAIN  55  55 100 N6        30.05F
JENNINGS       LGT RAIN  55  55  99 NE8       30.03F
LAFAYETTE      RAIN      57  56  96 NE13      30.02F FOG
NEW IBERIA     CLOUDY    58  55  90 NE8       30.03F
ABBEVILLE      DRIZZLE   56  55  97 NE6       30.03S
PATTERSON      CLOUDY    55  55 100 E7        30.02F
SALT POINT       N/A     60  56  86 VRB5      30.00F
$$

SELECTED SITES ACROSS THE REGION

CITY           SKY/WX    TMP DP  RH WIND       PRES   REMARKS
HOUSTON BUSH   LGT RAIN  54  51  90 NE14      30.03F
HOUSTON HOBBY  LGT RAIN  54  52  93 N13       30.01F FOG
GALVESTON      LGT RAIN  59  59 100 N21G30    29.97F FOG
COLLEGE STAT   CLOUDY    58  52  80 N15       30.05F
CONROE         LGT RAIN  52  50  93 NE7       30.05F FOG
HUNTSVILLE     PTSUNNY   55  52  89 E7        30.04F
LUFKIN         CLOUDY    53  49  86 E10       30.05F
SHREVEPORT     CLOUDY    50  47  89 NE9       30.09R
MONROE         LGT RAIN  46  45  96 NE12      30.17F FOG
NATCHEZ MS     CLOUDY    48  45  87 NE10      30.10F
BATON ROUGE    LGT RAIN  53  51  93 NE8       30.06F
N.O. INTL ARPT LGT RAIN  54  52  93 E10       30.05F FOG
SLIDELL        RAIN      50  48  93 N5        30.09R FOG
$$

MARINE REPORTS

STATION/POSITION TIME  TEMP    WIND        PRES    VSBY  WAVE
                       AIR SEA DIR/SP/G                  HT/PER
                 (UTC) (F)     (DEG/KT/KT) (MB)    (MI)  (FT/S)
BUOY 30 S HIGH I 2000   60 65   20/ 19/ 25 1014.0R         6/ 5
SEA RIM ST PARK  2000   57      50/  9/ 11 1016.1F
PORT ARTHUR      2000      61   40/  6/ 11 1015.5F
SABINE PASS N    2000   57 60   50/ 14/ 19 1015.1F
TEXAS POINT      NOT AVBL
CALCASIEU PASS   2000   57 61   60/ 12/ 15   N/A
LK CHARLES BEACH 2000   56 61              1016.9F
MARSH ISLAND     NOT AVBL
FRESH WATER LOCK 2000   57 61   40/  5/ 11 1016.3S
AMERADA PASS     2000   57 50   90/  7/ 11 1016.1R
$$


USA.gov is the U.S. government's official web portal to all federal, state and local government web resources and services.